Location: Bogis-Bossey
(46.3500°N, 6.1667°E)
Time: 19:13:10
(UTC+00:00)

Cosmos 1400 Rocket - Pass Details

Date: 17 August 2022
Orbit: 519 x 561 km, 81.2° (Epoch: 01 October)

Event Time Altitude Azimuth Distance (km) Brightness Sun altitude
Rises 20:03:29 0° 190° (S) 2,736 6.1 -13.3°
Reaches altitude 10° 20:05:39 10° 190° (S) 1,842 5.2 -13.6°
Maximum altitude 20:09:44 88° 278° (W) 562 2.8 -14.1°
Drops below altitude 10° 20:13:47 10° 10° (N) 1,836 5.8 -14.7°
Sets 20:15:57 0° 11° (N) 2,727 6.8 -15.0°
